Flag for Russia Weather past 2 weeks in Saint-Petersburg, Russia

Now
73 °F

Partly sunny.


Feels Like: 76 °F
Forecast: 60 / 82 °F
Wind: 6 mph from Northwest

Location: St. Petersburg

Current Time: Aug 2, 2014 at 11:52:13 AM

Latest Report: Aug 2, 2014 at 11:00 AM


Visibility: N/A

Pressure: 30.12 "Hg

Humidity: 65%

Dew point: 61 °F

Location of Saint-PetersburgLocation

Historic Weather in Saint-Petersburg — Graph

°F

Saint-Petersburg temperature yesterday

Maximum temperature yesterday: 79 °F (at 1:30 PM)
Minimum temperature yesterday: 68 °F (at 4:00 AM)
Average temperature yesterday: 73 °F

Past Weeks' High & Low Weather Summary

 TemperatureHumidityPressure
High91 °F (Jul 31, 3:30 PM)100% (Jul 20, 6:00 AM)30.21 "Hg (Jul 20, 6:00 AM)
Low54 °F (Jul 25, 4:00 AM)27% (Jul 31, 4:30 PM)29.74 "Hg (Jul 31, 6:00 PM)
Average73 °F64%30.04 "Hg
* Reported Jul 18 10:00 AM — Aug 2 10:30 AM, Saint-Petersburg, Weather by CustomWeather, © 2014

Note: Actual official high and low records may vary slightly from our data, if they occured in-between our weather recording intervals... More about our weather records

Advertising

Saint-Petersburg weather history for previous 24 hours

 ConditionsComfort  
Time TempWeatherWind HumidityBarometerVisibility
10:30 AM
Aug 2
73 °FPartly sunny.10 mph65%30.12 "HgN/A
10:00 AM72 °FPassing clouds.8 mph69%30.12 "HgN/A
9:30 AM70 °FSunny.8 mph73%30.12 "Hg10 mi
9:00 AM70 °FSunny.6 mph73%30.09 "Hg10 mi
8:30 AM68 °FSunny.6 mph78%30.09 "Hg10 mi
8:00 AM64 °FSunny.3 mph88%30.09 "Hg10 mi
7:30 AM64 °FPassing clouds.3 mph83%30.09 "HgN/A
7:00 AM63 °FPassing clouds.3 mph83%30.07 "HgN/A
6:30 AM61 °FPassing clouds.3 mph88%30.07 "HgN/A
6:00 AM61 °FPassing clouds.3 mph88%30.07 "HgN/A
5:30 AM61 °FPassing clouds.3 mph88%30.07 "HgN/A
5:00 AM61 °FPassing clouds.3 mph83%30.07 "HgN/A
4:30 AM63 °FPassing clouds.3 mph83%30.07 "HgN/A
4:00 AM61 °FPassing clouds.3 mph88%30.07 "HgN/A
3:30 AM63 °FClear.1 mph88%30.04 "Hg10 mi
3:00 AM63 °FPassing clouds.3 mph88%30.04 "HgN/A
2:30 AM64 °FPassing clouds.3 mph83%30.04 "HgN/A
2:00 AM64 °FPassing clouds.3 mph83%30.04 "HgN/A
1:30 AM64 °FPassing clouds.3 mph83%30.04 "HgN/A
1:00 AM66 °FPassing clouds.3 mph78%30.01 "HgN/A
12:30 AM68 °FClear.6 mph78%30.01 "Hg10 mi
12:00 AM70 °FPassing clouds.6 mph73%30.01 "HgN/A
11:30 PM
Aug 1
70 °FPassing clouds.3 mph78%30.01 "HgN/A
11:00 PM70 °FSunny.6 mph78%29.98 "Hg10 mi
10:30 PM70 °FSunny.6 mph73%29.98 "Hg10 mi
10:00 PM70 °FSunny.6 mph64%29.98 "Hg10 mi
9:30 PM73 °FPassing clouds.3 mph53%29.98 "HgN/A
9:00 PM75 °FPassing clouds.3 mph47%29.95 "HgN/A
8:30 PM75 °FSunny.6 mph47%29.95 "Hg10 mi
8:00 PM77 °FSunny.8 mph42%29.95 "Hg10 mi
7:30 PM77 °FPassing clouds.10 mph39%29.95 "HgN/A
7:00 PM77 °FSunny.8 mph42%29.95 "Hg10 mi
6:30 PM79 °FPassing clouds.6 mph45%29.95 "HgN/A
6:00 PM79 °FPassing clouds.6 mph42%29.95 "HgN/A
5:30 PM79 °FPassing clouds.8 mph45%29.95 "HgN/A
5:00 PM79 °FBroken clouds.13 mph45%29.92 "HgN/A
4:30 PM77 °FBroken clouds.8 mph51%29.92 "HgN/A
4:00 PM79 °FBroken clouds.10 mph48%29.92 "HgN/A
3:30 PM79 °FBroken clouds.8 mph51%29.92 "HgN/A
3:00 PM77 °FBroken clouds.8 mph54%29.92 "HgN/A
2:30 PM79 °FBroken clouds.10 mph51%29.92 "HgN/A
2:00 PM79 °FBroken clouds.8 mph42%29.92 "HgN/A
1:30 PM79 °FBroken clouds.8 mph45%29.92 "HgN/A
1:00 PM77 °FBroken clouds.8 mph44%29.92 "HgN/A
12:30 PM77 °FBroken clouds.8 mph47%29.89 "HgN/A
12:00 PM77 °FBroken clouds.8 mph47%29.89 "HgN/A
11:30 AM75 °FPartly sunny.6 mph57%29.89 "HgN/A
11:00 AM75 °FPartly sunny.8 mph57%29.89 "HgN/A
Weather by CustomWeather, © 2014

See weather overviewHow to use our weather pages